,,,PA_Meas_PMT16A,,PR_Meas_QMR101_102,,RH_Meas_QMH101,,SR_Meas_QMS101,,TA_Meas_QMH101,,GenWind,,GenWind,
date,time,status,PA,status,PR,status,RH,status,SR,status,TA,status,DirAvg,status,SpdAvg,
2011-03-25, 00:00:04,VALID,999.401,VALID,0,VALID,92.7457,VALID,0,VALID,23.7988,VALID,280,VALID,0.38125,
2011-03-25, 00:01:04,VALID,999.377,VALID,0.5,VALID,92.7685,VALID,0,VALID,23.7988,VALID,280,VALID,0.0875,
2011-03-25, 00:02:04,VALID,999.325,VALID,0,VALID,92.7838,VALID,0,VALID,23.7597,VALID,229,VALID,0.766797,
2011-03-25, 00:03:04,VALID,999.297,VALID,0,VALID,92.7991,VALID,0,VALID,23.7597,VALID,221,VALID,0.824219,
2011-03-25, 00:04:04,VALID,999.275,VALID,0,VALID,92.7838,VALID,0,VALID,23.7207,VALID,236,VALID,0.526172,
2011-03-25, 00:05:04,VALID,999.258,VALID,0,VALID,92.7991,VALID,0,VALID,23.7207,VALID,190,VALID,1.35547,
2011-03-25, 00:06:04,VALID,999.247,VALID,0.5,VALID,92.8143,VALID,0,VALID,23.7207,VALID,216,VALID,1.18711,
2011-03-25, 00:07:04,VALID,999.226,VALID,0,VALID,92.8372,VALID,0,VALID,23.7012,VALID,216,VALID,0.838672,
2011-03-25, 00:08:04,VALID,999.199,VALID,0,VALID,92.8448,VALID,0,VALID,23.6409,VALID,225,VALID,0.886328,
2011-03-25, 00:09:04,VALID,999.189,VALID,0.5,VALID,92.8448,VALID,0,VALID,23.6427,VALID,213,VALID,1.04219,
2011-03-25, 00:10:04,VALID,999.168,VALID,0,VALID,92.8448,VALID,0,VALID,23.6427,VALID,233,VALID,0.457031,
2011-03-25, 00:11:04,VALID,999.157,VALID,0,VALID,92.8525,VALID,0,VALID,23.6036,VALID,233,VALID,0,
2011-03-25, 00:12:04,VALID,999.138,VALID,0,VALID,92.8754,VALID,0,VALID,23.6036,VALID,233,VALID,0,
2011-03-25, 00:13:04,VALID,999.156,VALID,0,VALID,92.8754,VALID,0,VALID,23.6036,VALID,238,VALID,0,
2011-03-25, 00:14:04,VALID,999.126,VALID,0.5,VALID,92.8983,VALID,0,VALID,23.6232,VALID,238,VALID,0,
2011-03-25, 00:15:04,VALID,999.103,VALID,0,VALID,92.9059,VALID,0,VALID,23.6232,VALID,238,VALID,0,
2011-03-25, 00:16:04,VALID,999.088,VALID,0,VALID,92.9135,VALID,0,VALID,23.6036,VALID,238,VALID,0,
2011-03-25, 00:17:04,VALID,999.083,VALID,0,VALID,92.9288,VALID,0,VALID,23.6036,VALID,238,VALID,0,
2011-03-25, 00:18:04,VALID,999.048,VALID,0,VALID,92.9517,VALID,0,VALID,23.6036,VALID,238,VALID,0,
2011-03-25, 00:19:04,VALID,999.032,VALID,0,VALID,92.9593,VALID,0,VALID,23.5823,VALID,238,VALID,0,
2011-03-25, 00:20:04,VALID,999.01,VALID,0,VALID,92.9745,VALID,0,VALID,23.6036,VALID,238,VALID,0,
2011-03-25, 00:21:04,VALID,998.982,VALID,0,VALID,92.9974,VALID,0,VALID,23.5841,VALID,238,VALID,0,
2011-03-25, 00:22:04,VALID,998.962,VALID,0,VALID,93.0127,VALID,0,VALID,23.6036,VALID,238,VALID,0,
2011-03-25, 00:23:04,VALID,998.955,VALID,0,VALID,93.028,VALID,0,VALID,23.5841,VALID,238,VALID,0,
2011-03-25, 00:24:04,VALID,998.966,VALID,0,VALID,93.0432,VALID,0,VALID,23.5841,VALID,158,VALID,0,
2011-03-25, 00:25:04,VALID,998.899,VALID,0,VALID,93.0508,VALID,0,VALID,23.6036,VALID,153,VALID,1.05703,
2011-03-25, 00:26:04,VALID,998.931,VALID,0,VALID,93.0508,VALID,0,VALID,23.5841,VALID,153,VALID,1.02188,
2011-03-25, 00:27:04,VALID,998.94,VALID,0,VALID,93.0737,VALID,0,VALID,23.5841,VALID,152,VALID,1.09844,
2011-03-25, 00:28:04,VALID,998.95,VALID,0,VALID,93.0585,VALID,0,VALID,23.6036,VALID,152,VALID,0.915234,
2011-03-25, 00:29:04,VALID,998.946,VALID,0.5,VALID,93.0661,VALID,0,VALID,23.6036,VALID,152,VALID,1.04609,
2011-03-25, 00:30:04,VALID,998.947,VALID,0,VALID,93.0814,VALID,0,VALID,23.6036,VALID,151,VALID,0.866797,
2011-03-25, 00:31:04,VALID,998.928,VALID,0,VALID,93.1043,VALID,0,VALID,23.6036,VALID,146,VALID,1.11719,
2011-03-25, 00:32:04,VALID,998.901,VALID,0,VALID,93.0661,VALID,0,VALID,23.6019,VALID,164,VALID,1.10234,
2011-03-25, 00:33:04,VALID,998.927,VALID,0,VALID,93.0966,VALID,0,VALID,23.6232,VALID,158,VALID,1.38633,
2011-03-25, 00:34:04,VALID,998.905,VALID,0,VALID,93.1043,VALID,0,VALID,23.6019,VALID,150,VALID,1.22461,
2011-03-25, 00:35:04,VALID,998.873,VALID,0,VALID,93.1043,VALID,0,VALID,23.6232,VALID,146,VALID,1.36445,
2011-03-25, 00:36:04,VALID,998.846,VALID,0,VALID,93.1195,VALID,0,VALID,23.6036,VALID,141,VALID,1.275,
2011-03-25, 00:37:04,VALID,998.872,VALID,0,VALID,93.1119,VALID,0,VALID,23.6036,VALID,139,VALID,1.11406,
2011-03-25, 00:38:04,VALID,998.828,VALID,0,VALID,93.1271,VALID,0,VALID,23.5628,VALID,140,VALID,0.871484,
2011-03-25, 00:39:04,VALID,998.864,VALID,0,VALID,93.1348,VALID,0,VALID,23.5841,VALID,145,VALID,0.860937,
2011-03-25, 00:40:04,VALID,998.86,VALID,0,VALID,93.1195,VALID,0,VALID,23.5238,VALID,157,VALID,0.930859,
2011-03-25, 00:41:04,VALID,998.848,VALID,0,VALID,93.1195,VALID,0,VALID,23.5451,VALID,161,VALID,0.888281,
2011-03-25, 00:42:04,VALID,998.832,VALID,0,VALID,93.1271,VALID,0,VALID,23.5061,VALID,164,VALID,0.875,
2011-03-25, 00:43:04,VALID,998.825,VALID,0,VALID,93.1271,VALID,0,VALID,23.4653,VALID,145,VALID,1.31094,
2011-03-25, 00:44:04,VALID,998.804,VALID,0.5,VALID,93.1271,VALID,0,VALID,23.4458,VALID,138,VALID,1.21875,
2011-03-25, 00:45:04,VALID,998.788,VALID,0,VALID,93.1424,VALID,0,VALID,23.4671,VALID,141,VALID,1.15313,
2011-03-25, 00:46:04,VALID,998.785,VALID,0,VALID,93.1195,VALID,0,VALID,23.4263,VALID,147,VALID,1.22148,
2011-03-25, 00:47:04,VALID,998.744,VALID,0.5,VALID,93.1271,VALID,0,VALID,23.4067,VALID,148,VALID,1.51289,
2011-03-25, 00:48:04,VALID,998.695,VALID,1.5,VALID,93.1271,VALID,0,VALID,23.3872,VALID,127,VALID,1.68125,
2011-03-25, 00:49:04,VALID,998.643,VALID,0.5,VALID,93.1424,VALID,0,VALID,23.4085,VALID,115,VALID,1.93789,
2011-03-25, 00:50:04,VALID,998.64,VALID,0.5,VALID,93.15,VALID,0,VALID,23.3695,VALID,133,VALID,2.04727,
2011-03-25, 00:51:04,VALID,998.615,VALID,0,VALID,93.1577,VALID,0,VALID,23.3695,VALID,154,VALID,1.19883,
2011-03-25, 00:52:04,VALID,998.64,VALID,0,VALID,93.1729,VALID,0,VALID,23.3695,VALID,168,VALID,1.22773,
2011-03-25, 00:53:04,VALID,998.652,VALID,0,VALID,93.1882,VALID,0,VALID,23.3482,VALID,173,VALID,1.59648,
2011-03-25, 00:54:04,VALID,998.679,VALID,0,VALID,93.2187,VALID,0,VALID,23.3677,VALID,190,VALID,1.90937,
2011-03-25, 00:55:04,VALID,998.675,VALID,0.5,VALID,93.1882,VALID,0,VALID,23.428,VALID,206,VALID,1.91289,
2011-03-25, 00:56:04,VALID,998.648,VALID,0.5,VALID,93.2263,VALID,0,VALID,23.4085,VALID,193,VALID,1.61836,
2011-03-25, 00:57:04,VALID,998.651,VALID,1,VALID,93.2034,VALID,0,VALID,23.4475,VALID,173,VALID,2.44492,
2011-03-25, 00:58:04,VALID,998.611,VALID,0,VALID,93.2492,VALID,0.112286,VALID,23.389,VALID,176,VALID,2.3625,
2011-03-25, 00:59:04,VALID,998.628,VALID,0.5,VALID,93.2416,VALID,0,VALID,23.3872,VALID,182,VALID,2.44297,
2011-03-25, 01:00:04,VALID,998.659,VALID,0.5,VALID,93.2492,VALID,0,VALID,23.4458,VALID,211,VALID,2.18828,
2011-03-25, 01:01:04,VALID,998.654,VALID,0.5,VALID,93.2721,VALID,0,VALID,23.4067,VALID,212,VALID,1.70078,
2011-03-25, 01:02:04,VALID,998.651,VALID,0.5,VALID,93.2874,VALID,0,VALID,23.4085,VALID,208,VALID,2.31328,
2011-03-25, 01:03:04,VALID,998.674,VALID,1,VALID,93.2797,VALID,0,VALID,23.4085,VALID,195,VALID,1.69922,
2011-03-25, 01:04:04,VALID,998.666,VALID,0.5,VALID,93.3026,VALID,0.112286,VALID,23.3872,VALID,193,VALID,1.28359,
2011-03-25, 01:05:04,VALID,998.709,VALID,0.5,VALID,93.3179,VALID,0,VALID,23.4067,VALID,219,VALID,1.31562,
2011-03-25, 01:06:04,VALID,998.685,VALID,0.5,VALID,93.3103,VALID,0,VALID,23.4475,VALID,214,VALID,1.47305,
2011-03-25, 01:07:04,VALID,998.714,VALID,0.5,VALID,93.295,VALID,0,VALID,23.4671,VALID,227,VALID,2.18906,
2011-03-25, 01:08:04,VALID,998.678,VALID,1,VALID,93.3255,VALID,0,VALID,23.4671,VALID,216,VALID,1.07656,
2011-03-25, 01:09:04,VALID,998.636,VALID,1,VALID,93.3179,VALID,0,VALID,23.4671,VALID,244,VALID,2.34102,
2011-03-25, 01:10:04,VALID,998.62,VALID,0.5,VALID,93.356,VALID,0,VALID,23.4671,VALID,229,VALID,2.33086,
2011-03-25, 01:11:04,VALID,998.589,VALID,1,VALID,93.3408,VALID,0,VALID,23.4263,VALID,233,VALID,2.73086,
2011-03-25, 01:12:04,VALID,998.585,VALID,1,VALID,93.3484,VALID,0,VALID,23.4475,VALID,226,VALID,2.28984,
2011-03-25, 01:13:04,VALID,998.611,VALID,0.5,VALID,93.356,VALID,0,VALID,23.4263,VALID,234,VALID,2.08594,
2011-03-25, 01:14:04,VALID,998.607,VALID,0.5,VALID,93.3713,VALID,0,VALID,23.428,VALID,241,VALID,1.20742,
2011-03-25, 01:15:04,VALID,998.568,VALID,1,VALID,93.3866,VALID,0,VALID,23.4263,VALID,227,VALID,1.2043,
2011-03-25, 01:16:04,VALID,998.518,VALID,1,VALID,93.3637,VALID,0,VALID,23.4067,VALID,228,VALID,1.26875,
2011-03-25, 01:17:04,VALID,998.498,VALID,0.5,VALID,93.3942,VALID,0,VALID,23.4067,VALID,213,VALID,1.59219,
2011-03-25, 01:18:04,VALID,998.447,VALID,0.5,VALID,93.3789,VALID,0,VALID,23.3872,VALID,212,VALID,1.66289,
2011-03-25, 01:19:04,VALID,998.466,VALID,0.5,VALID,93.3942,VALID,0,VALID,23.428,VALID,206,VALID,1.96875,
2011-03-25, 01:20:04,VALID,998.474,VALID,0.5,VALID,93.4018,VALID,0,VALID,23.428,VALID,220,VALID,1.5418,
2011-03-25, 01:21:04,VALID,998.461,VALID,0.5,VALID,93.4171,VALID,0,VALID,23.428,VALID,240,VALID,1.39844,
2011-03-25, 01:22:04,VALID,998.493,VALID,0.5,VALID,93.4094,VALID,0,VALID,23.4067,VALID,240,VALID,1.83555,
2011-03-25, 01:23:04,VALID,998.437,VALID,0.5,VALID,93.4094,VALID,0,VALID,23.428,VALID,221,VALID,1.29414,
2011-03-25, 01:24:04,VALID,998.448,VALID,0.5,VALID,93.4094,VALID,0,VALID,23.4475,VALID,220,VALID,1.3793,
2011-03-25, 01:25:04,VALID,998.464,VALID,0.5,VALID,93.4476,VALID,0,VALID,23.4263,VALID,213,VALID,1.67148,
2011-03-25, 01:26:04,VALID,998.483,VALID,0.5,VALID,93.4247,VALID,0,VALID,23.428,VALID,251,VALID,1.01055,
2011-03-25, 01:27:04,VALID,998.501,VALID,0,VALID,93.4247,VALID,0,VALID,23.4263,VALID,235,VALID,2.22813,
2011-03-25, 01:28:04,VALID,998.511,VALID,0.5,VALID,93.4323,VALID,0,VALID,23.4475,VALID,236,VALID,2.56289,
2011-03-25, 01:29:04,VALID,998.477,VALID,0,VALID,93.4323,VALID,0,VALID,23.428,VALID,271,VALID,1.74688,
2011-03-25, 01:30:04,VALID,998.46,VALID,0.5,VALID,93.4476,VALID,0,VALID,23.4067,VALID,219,VALID,1.71328,
2011-03-25, 01:31:04,VALID,998.442,VALID,0,VALID,93.44,VALID,0,VALID,23.3872,VALID,223,VALID,2.81094,
2011-03-25, 01:32:04,VALID,998.452,VALID,0.5,VALID,93.4552,VALID,0,VALID,23.3677,VALID,231,VALID,2.27031,
2011-03-25, 01:33:04,VALID,998.455,VALID,0.5,VALID,93.4476,VALID,0.112286,VALID,23.3482,VALID,228,VALID,1.9207,
2011-03-25, 01:34:04,VALID,998.403,VALID,0.5,VALID,93.4476,VALID,0,VALID,23.3695,VALID,236,VALID,1.50977,
2011-03-25, 01:35:04,VALID,998.396,VALID,0.5,VALID,93.4628,VALID,0,VALID,23.35,VALID,221,VALID,2.13867,
2011-03-25, 01:36:04,VALID,998.378,VALID,0.5,VALID,93.4781,VALID,0,VALID,23.3305,VALID,255,VALID,1.56875,
2011-03-25, 01:37:04,VALID,998.339,VALID,0.5,VALID,93.4705,VALID,0,VALID,23.2897,VALID,268,VALID,2.94375,
2011-03-25, 01:38:04,VALID,998.373,VALID,0.5,VALID,93.501,VALID,0,VALID,23.2719,VALID,251,VALID,2.75312,
2011-03-25, 01:39:04,VALID,998.381,VALID,0.5,VALID,93.4857,VALID,0,VALID,23.2524,VALID,240,VALID,1.93008,
2011-03-25, 01:40:04,VALID,998.356,VALID,0.5,VALID,93.5086,VALID,0,VALID,23.2915,VALID,238,VALID,0.946484,
2011-03-25, 01:41:04,VALID,998.413,VALID,0.5,VALID,93.4934,VALID,0,VALID,23.2719,VALID,253,VALID,2.20156,
2011-03-25, 01:42:04,VALID,998.416,VALID,1,VALID,93.501,VALID,0,VALID,23.2507,VALID,249,VALID,1.18594,
2011-03-25, 01:43:04,VALID,998.359,VALID,0.5,VALID,93.5086,VALID,0,VALID,23.2719,VALID,220,VALID,0.822656,
2011-03-25, 01:44:04,VALID,998.364,VALID,0.5,VALID,93.5086,VALID,0,VALID,23.2524,VALID,211,VALID,1.72617,
2011-03-25, 01:45:04,VALID,998.335,VALID,0,VALID,93.5086,VALID,0,VALID,23.2737,VALID,212,VALID,1.76172,
2011-03-25, 01:46:04,VALID,998.307,VALID,0.5,VALID,93.5163,VALID,0,VALID,23.2737,VALID,210,VALID,2.77656,
2011-03-25, 01:47:04,VALID,998.307,VALID,0,VALID,93.5163,VALID,0,VALID,23.2932,VALID,216,VALID,1.53164,
2011-03-25, 01:48:04,VALID,998.278,VALID,0.5,VALID,93.5086,VALID,0,VALID,23.2737,VALID,218,VALID,1.37422,
2011-03-25, 01:49:04,VALID,998.264,VALID,0,VALID,93.5391,VALID,0,VALID,23.2719,VALID,235,VALID,1.15781,
2011-03-25, 01:50:04,VALID,998.216,VALID,0,VALID,93.4934,VALID,0,VALID,23.3127,VALID,261,VALID,0.148438,
2011-03-25, 01:51:04,VALID,998.217,VALID,0.5,VALID,93.5163,VALID,0,VALID,23.2915,VALID,245,VALID,0.958594,
2011-03-25, 01:52:04,VALID,998.2,VALID,0,VALID,93.5086,VALID,0,VALID,23.2915,VALID,253,VALID,0.0261719,
2011-03-25, 01:53:04,VALID,998.141,VALID,0,VALID,93.5468,VALID,0,VALID,23.2737,VALID,296,VALID,2.87891,
2011-03-25, 01:54:04,VALID,998.162,VALID,0.5,VALID,93.5315,VALID,0,VALID,23.2524,VALID,251,VALID,1.66797,
2011-03-25, 01:55:04,VALID,998.129,VALID,0,VALID,93.5315,VALID,0,VALID,23.2329,VALID,234,VALID,2.26875,
2011-03-25, 01:56:04,VALID,998.123,VALID,0,VALID,93.5391,VALID,0,VALID,23.2329,VALID,245,VALID,2.10273,
2011-03-25, 01:57:04,VALID,998.114,VALID,0,VALID,93.5468,VALID,0,VALID,23.2329,VALID,219,VALID,1.83203,
2011-03-25, 01:58:04,VALID,998.094,VALID,0,VALID,93.5391,VALID,0,VALID,23.2329,VALID,265,VALID,1.40742,
2011-03-25, 01:59:04,VALID,998.115,VALID,0,VALID,93.5315,VALID,0,VALID,23.2524,VALID,248,VALID,0.68125,
2011-03-25, 02:00:04,VALID,998.123,VALID,0,VALID,93.5544,VALID,0,VALID,23.2329,VALID,243,VALID,0.652344,
2011-03-25, 02:01:04,VALID,998.118,VALID,0.5,VALID,93.5315,VALID,0,VALID,23.2524,VALID,247,VALID,0.680078,
2011-03-25, 02:02:04,VALID,998.127,VALID,0,VALID,93.562,VALID,0,VALID,23.2329,VALID,296,VALID,2.29258,
2011-03-25, 02:03:04,VALID,998.108,VALID,0,VALID,93.5391,VALID,0,VALID,23.2329,VALID,333,VALID,0.469922,
2011-03-25, 02:04:04,VALID,998.148,VALID,0,VALID,93.562,VALID,0,VALID,23.2329,VALID,238,VALID,1.34883,
2011-03-25, 02:05:04,VALID,998.141,VALID,0,VALID,93.562,VALID,0,VALID,23.2134,VALID,279,VALID,1.82813,
2011-03-25, 02:06:04,VALID,998.177,VALID,0.5,VALID,93.5544,VALID,0,VALID,23.2134,VALID,263,VALID,1.06875,
2011-03-25, 02:07:04,VALID,998.232,VALID,0,VALID,93.562,VALID,0,VALID,23.2134,VALID,275,VALID,0.759766,
2011-03-25, 02:08:04,VALID,998.261,VALID,0,VALID,93.5697,VALID,0,VALID,23.1939,VALID,219,VALID,2.21797,
2011-03-25, 02:09:04,VALID,998.269,VALID,0,VALID,93.5697,VALID,0,VALID,23.1939,VALID,287,VALID,0.619141,
2011-03-25, 02:10:04,VALID,998.29,VALID,0,VALID,93.5773,VALID,0,VALID,23.1744,VALID,254,VALID,0.544141,
2011-03-25, 02:11:04,VALID,998.326,VALID,0.5,VALID,93.5697,VALID,0,VALID,23.1744,VALID,282,VALID,1.13984,
2011-03-25, 02:12:04,VALID,998.31,VALID,0,VALID,93.5849,VALID,0,VALID,23.1549,VALID,271,VALID,0.75,
2011-03-25, 02:13:04,VALID,998.314,VALID,0,VALID,93.5926,VALID,0,VALID,23.1354,VALID,304,VALID,0.769141,
2011-03-25, 02:14:04,VALID,998.379,VALID,0,VALID,93.5926,VALID,0,VALID,23.1354,VALID,267,VALID,1.85586,
2011-03-25, 02:15:04,VALID,998.375,VALID,0,VALID,93.5849,VALID,0,VALID,23.1159,VALID,248,VALID,0.344141,
2011-03-25, 02:16:04,VALID,998.371,VALID,0,VALID,93.6002,VALID,0,VALID,23.1159,VALID,289,VALID,0.819922,
2011-03-25, 02:17:04,VALID,998.361,VALID,0,VALID,93.5926,VALID,0,VALID,23.0964,VALID,290,VALID,2.11875,
2011-03-25, 02:18:04,VALID,998.325,VALID,0.5,VALID,93.6078,VALID,0,VALID,23.0964,VALID,277,VALID,0.687109,
2011-03-25, 02:19:04,VALID,998.294,VALID,0,VALID,93.6002,VALID,0,VALID,23.1159,VALID,306,VALID,1.09414,
2011-03-25, 02:20:04,VALID,998.297,VALID,0,VALID,93.5849,VALID,0,VALID,23.1159,VALID,246,VALID,0.628516,
2011-03-25, 02:21:04,VALID,998.253,VALID,0,VALID,93.6002,VALID,0,VALID,23.0964,VALID,237,VALID,0.838672,
2011-03-25, 02:22:04,VALID,998.256,VALID,0,VALID,93.6078,VALID,0,VALID,23.1159,VALID,228,VALID,0.000390625,
2011-03-25, 02:23:04,VALID,998.246,VALID,0,VALID,93.6078,VALID,0,VALID,23.1371,VALID,260,VALID,0.729688,
2011-03-25, 02:24:04,VALID,998.213,VALID,0.5,VALID,93.6078,VALID,0,VALID,23.1176,VALID,271,VALID,1.88398,
2011-03-25, 02:25:04,VALID,998.199,VALID,0,VALID,93.6154,VALID,0,VALID,23.0964,VALID,278,VALID,0.742969,
2011-03-25, 02:26:04,VALID,998.155,VALID,0,VALID,93.6078,VALID,0,VALID,23.1176,VALID,281,VALID,0.0894531,
2011-03-25, 02:27:04,VALID,998.135,VALID,0,VALID,93.6231,VALID,0,VALID,23.1176,VALID,251,VALID,0.680469,
2011-03-25, 02:28:04,VALID,998.126,VALID,0,VALID,93.6154,VALID,0,VALID,23.0769,VALID,224,VALID,0.963672,
2011-03-25, 02:29:04,VALID,998.093,VALID,0,VALID,93.6078,VALID,0,VALID,23.0981,VALID,252,VALID,0.753906,
2011-03-25, 02:30:04,VALID,998.092,VALID,0.5,VALID,93.6231,VALID,0,VALID,23.0769,VALID,250,VALID,1.0207,
2011-03-25, 02:31:04,VALID,998.078,VALID,0,VALID,93.6231,VALID,0,VALID,23.0769,VALID,241,VALID,1.52188,
2011-03-25, 02:32:04,VALID,998.082,VALID,0,VALID,93.6307,VALID,0,VALID,23.0769,VALID,244,VALID,1.71133,
2011-03-25, 02:33:04,VALID,998.037,VALID,0,VALID,93.6078,VALID,0,VALID,23.0769,VALID,219,VALID,1.42734,
2011-03-25, 02:34:04,VALID,998.06,VALID,0,VALID,93.6154,VALID,0,VALID,23.0573,VALID,232,VALID,1.43281,
2011-03-25, 02:35:04,VALID,998.06,VALID,0,VALID,93.646,VALID,0,VALID,23.0769,VALID,277,VALID,0.835938,
2011-03-25, 02:36:04,VALID,998.062,VALID,0,VALID,93.6307,VALID,0,VALID,23.0769,VALID,275,VALID,1.25898,
2011-03-25, 02:37:04,VALID,998.063,VALID,0,VALID,93.646,VALID,0,VALID,23.0378,VALID,244,VALID,0.315234,
2011-03-25, 02:38:04,VALID,998.064,VALID,0.5,VALID,93.6383,VALID,0,VALID,23.0378,VALID,301,VALID,1.34531,
2011-03-25, 02:39:04,VALID,998.042,VALID,0,VALID,93.6536,VALID,0,VALID,23.0183,VALID,335,VALID,0.898047,
2011-03-25, 02:40:04,VALID,998.052,VALID,0,VALID,93.646,VALID,0,VALID,23.0183,VALID,331,VALID,0.869922,
2011-03-25, 02:41:04,VALID,998.05,VALID,0,VALID,93.6383,VALID,0,VALID,23.0201,VALID,12,VALID,0.987109,
2011-03-25, 02:42:04,VALID,998.039,VALID,0,VALID,93.646,VALID,0,VALID,22.9776,VALID,321,VALID,1.15117,
2011-03-25, 02:43:04,VALID,998.071,VALID,0,VALID,93.6536,VALID,0,VALID,23.0183,VALID,326,VALID,0.603516,
2011-03-25, 02:44:04,VALID,998.082,VALID,0,VALID,93.6612,VALID,0,VALID,22.9988,VALID,327,VALID,0.112891,
2011-03-25, 02:45:04,VALID,998.081,VALID,0,VALID,93.6536,VALID,0,VALID,23.0183,VALID,312,VALID,0.0121094,
2011-03-25, 02:46:04,VALID,998.104,VALID,0,VALID,93.6383,VALID,0,VALID,23.0183,VALID,317,VALID,0,
2011-03-25, 02:47:04,VALID,998.118,VALID,0,VALID,93.646,VALID,0,VALID,23.0378,VALID,27,VALID,0,
2011-03-25, 02:48:04,VALID,998.11,VALID,0,VALID,93.646,VALID,0,VALID,23.0378,VALID,10,VALID,0,
2011-03-25, 02:49:04,VALID,998.127,VALID,0,VALID,93.6536,VALID,0,VALID,23.0378,VALID,291,VALID,0,
2011-03-25, 02:50:04,VALID,998.15,VALID,0,VALID,93.6612,VALID,0,VALID,23.0378,VALID,291,VALID,0,
2011-03-25, 02:51:04,VALID,998.178,VALID,0,VALID,93.6307,VALID,0,VALID,23.0378,VALID,291,VALID,0,
2011-03-25, 02:52:04,VALID,998.159,VALID,0,VALID,93.6688,VALID,0,VALID,23.0573,VALID,291,VALID,0,
2011-03-25, 02:53:04,VALID,998.177,VALID,0,VALID,93.6536,VALID,0,VALID,23.0378,VALID,285,VALID,0,
2011-03-25, 02:54:04,VALID,998.178,VALID,0,VALID,93.6688,VALID,0,VALID,23.0573,VALID,323,VALID,0.65,
2011-03-25, 02:55:04,VALID,998.186,VALID,0,VALID,93.6612,VALID,0,VALID,23.0769,VALID,282,VALID,0.967969,
2011-03-25, 02:56:04,VALID,998.196,VALID,0,VALID,93.6536,VALID,0,VALID,23.0769,VALID,306,VALID,0.633203,
2011-03-25, 02:57:04,VALID,998.214,VALID,0,VALID,93.6612,VALID,0,VALID,23.1176,VALID,266,VALID,0.760156,
2011-03-25, 02:58:04,VALID,998.23,VALID,0,VALID,93.6612,VALID,0,VALID,23.0964,VALID,270,VALID,1.27266,
2011-03-25, 02:59:04,VALID,998.241,VALID,0.5,VALID,93.6536,VALID,0,VALID,23.0964,VALID,283,VALID,1.12539,
2011-03-25, 03:00:04,VALID,998.259,VALID,0,VALID,93.6536,VALID,0,VALID,23.0964,VALID,239,VALID,1.56953,
2011-03-25, 03:01:04,VALID,998.264,VALID,0,VALID,93.6536,VALID,0,VALID,23.0769,VALID,272,VALID,0.651172,
2011-03-25, 03:02:04,VALID,998.3,VALID,0,VALID,93.6688,VALID,0,VALID,23.0964,VALID,256,VALID,0.612891,
2011-03-25, 03:03:04,VALID,998.288,VALID,0,VALID,93.6612,VALID,0,VALID,23.0769,VALID,239,VALID,1.31211,
2011-03-25, 03:04:04,VALID,998.268,VALID,0,VALID,93.6612,VALID,0,VALID,23.0769,VALID,306,VALID,1.04375,
2011-03-25, 03:05:04,VALID,998.276,VALID,0,VALID,93.6765,VALID,0,VALID,23.0573,VALID,235,VALID,1.71797,
2011-03-25, 03:06:04,VALID,998.332,VALID,0,VALID,93.6917,VALID,0,VALID,23.0769,VALID,265,VALID,1.59102,
2011-03-25, 03:07:04,VALID,998.315,VALID,0,VALID,93.6688,VALID,0,VALID,23.0769,VALID,252,VALID,1.14492,
2011-03-25, 03:08:04,VALID,998.344,VALID,0,VALID,93.6688,VALID,0,VALID,23.0769,VALID,276,VALID,0.898828,
2011-03-25, 03:09:04,VALID,998.365,VALID,0,VALID,93.6612,VALID,0,VALID,23.0769,VALID,240,VALID,0.711328,
2011-03-25, 03:10:04,VALID,998.3,VALID,0,VALID,93.6765,VALID,0,VALID,23.0769,VALID,257,VALID,0.796094,
2011-03-25, 03:11:04,VALID,998.36,VALID,0,VALID,93.6765,VALID,0,VALID,23.0769,VALID,214,VALID,1.29844,
2011-03-25, 03:12:04,VALID,998.351,VALID,0,VALID,93.6536,VALID,0,VALID,23.0769,VALID,249,VALID,0.334375,
2011-03-25, 03:13:04,VALID,998.356,VALID,0,VALID,93.6841,VALID,0,VALID,23.0573,VALID,245,VALID,1.34844,
2011-03-25, 03:14:04,VALID,998.363,VALID,0,VALID,93.6765,VALID,0,VALID,23.0573,VALID,247,VALID,1.84375,
2011-03-25, 03:15:04,VALID,998.362,VALID,0,VALID,93.6765,VALID,0,VALID,23.0573,VALID,263,VALID,0.464063,
2011-03-25, 03:16:04,VALID,998.366,VALID,0,VALID,93.6612,VALID,0,VALID,23.0573,VALID,263,VALID,1.32813,
2011-03-25, 03:17:04,VALID,998.387,VALID,0,VALID,93.6765,VALID,0,VALID,23.0591,VALID,257,VALID,0.878906,
2011-03-25, 03:18:04,VALID,998.436,VALID,0,VALID,93.6841,VALID,0,VALID,23.0378,VALID,222,VALID,1.43828,
2011-03-25, 03:19:04,VALID,998.43,VALID,0,VALID,93.6765,VALID,0,VALID,23.0573,VALID,233,VALID,0.672266,
2011-03-25, 03:20:04,VALID,998.456,VALID,0,VALID,93.6841,VALID,0,VALID,23.0591,VALID,232,VALID,0,
2011-03-25, 03:21:04,VALID,998.46,VALID,0,VALID,93.6765,VALID,0,VALID,23.0378,VALID,276,VALID,0,
2011-03-25, 03:22:04,VALID,998.441,VALID,0,VALID,93.6841,VALID,0,VALID,23.0573,VALID,267,VALID,0,
2011-03-25, 03:23:04,VALID,998.458,VALID,0,VALID,93.6765,VALID,0,VALID,23.0378,VALID,254,VALID,0,
2011-03-25, 03:24:04,VALID,998.446,VALID,0,VALID,93.6841,VALID,0,VALID,23.0361,VALID,258,VALID,0.502734,
2011-03-25, 03:25:04,VALID,998.455,VALID,0,VALID,93.6917,VALID,0,VALID,23.0573,VALID,238,VALID,0.819922,
2011-03-25, 03:26:04,VALID,998.453,VALID,0,VALID,93.6765,VALID,0,VALID,23.0378,VALID,297,VALID,1.00273,
2011-03-25, 03:27:04,VALID,998.438,VALID,0,VALID,93.6841,VALID,0,VALID,23.0378,VALID,250,VALID,0.3875,
2011-03-25, 03:28:04,VALID,998.437,VALID,0,VALID,93.6917,VALID,0,VALID,23.0378,VALID,255,VALID,0.00117188,
2011-03-25, 03:29:04,VALID,998.452,VALID,0,VALID,93.6917,VALID,0,VALID,23.0396,VALID,256,VALID,0,
2011-03-25, 03:30:04,VALID,998.414,VALID,0,VALID,93.707,VALID,0,VALID,23.0396,VALID,257,VALID,0,
2011-03-25, 03:31:04,VALID,998.402,VALID,0,VALID,93.6765,VALID,0,VALID,23.0396,VALID,257,VALID,0,
2011-03-25, 03:32:04,VALID,998.382,VALID,0,VALID,93.6841,VALID,0,VALID,23.0804,VALID,257,VALID,0,
2011-03-25, 03:33:05,VALID,998.38,VALID,0,VALID,93.6917,VALID,0,VALID,23.0591,VALID,257,VALID,0,
2011-03-25, 03:34:05,VALID,998.377,VALID,0,VALID,93.6917,VALID,0,VALID,23.0396,VALID,257,VALID,0,
2011-03-25, 03:35:05,VALID,998.342,VALID,0,VALID,93.6765,VALID,0,VALID,23.0396,VALID,257,VALID,0,
2011-03-25, 03:36:05,VALID,998.333,VALID,0,VALID,93.6765,VALID,0,VALID,23.0396,VALID,257,VALID,0,
2011-03-25, 03:37:05,VALID,998.32,VALID,0,VALID,93.6917,VALID,0,VALID,23.0396,VALID,257,VALID,0,
2011-03-25, 03:38:05,VALID,998.334,VALID,0,VALID,93.6841,VALID,0,VALID,23.0396,VALID,226,VALID,0,
2011-03-25, 03:39:05,VALID,998.32,VALID,0,VALID,93.6841,VALID,0,VALID,23.0396,VALID,246,VALID,0,
2011-03-25, 03:40:05,VALID,998.327,VALID,0,VALID,93.6917,VALID,0,VALID,23.0396,VALID,239,VALID,0,
2011-03-25, 03:41:05,VALID,998.343,VALID,0,VALID,93.6917,VALID,0,VALID,23.0396,VALID,207,VALID,0.44375,
2011-03-25, 03:42:05,VALID,998.315,VALID,0,VALID,93.707,VALID,0,VALID,23.0396,VALID,192,VALID,1.00586,
2011-03-25, 03:43:05,VALID,998.335,VALID,0,VALID,93.6994,VALID,0,VALID,23.0591,VALID,217,VALID,1.0543,
2011-03-25, 03:44:05,VALID,998.356,VALID,0,VALID,93.6917,VALID,0,VALID,23.0183,VALID,242,VALID,0.830859,
2011-03-25, 03:45:05,VALID,998.38,VALID,0,VALID,93.6841,VALID,0,VALID,23.0183,VALID,207,VALID,1.47344,
2011-03-25, 03:46:05,VALID,998.377,VALID,0,VALID,93.6917,VALID,0,VALID,23.0183,VALID,223,VALID,0.454688,